Weather History for South Lake Tahoe, CA

Change the Weather History Date:

Thursday, September 19, 2013

  Actual Average Record
Temperature  
Mean Temperature 53 °F 53 °F  
Max Temperature 76 °F 73 °F 82 °F (2000)
Min Temperature 30 °F 34 °F 22 °F (1978)
Degree Days  
Heating Degree Days 12 12  
Month to date heating degree days 84 182  
Since 1 July heating degree days 260 478  
Cooling Degree Days 0 0  
Month to date cooling degree days 6 0  
Year to date cooling degree days 104 30  
Growing Degree Days 2 (Base 50)    
Moisture  
Dew Point 26 °F    
Average Humidity 46    
Maximum Humidity 78    
Minimum Humidity 13    
Precipitation  
Precipitation 0.00 in - 1.24 in (1959)
Month to date precipitation 0.32  
Year to date precipitation 6.76  
Sea Level Pressure  
Sea Level Pressure 29.99 in    
Wind  
Wind Speed 2 mph (SE)    
Max Wind Speed 13 mph    
Max Gust Speed 17 mph    
Visibility 10 miles    
Events      
T = Trace of Precipitation, MM = Missing Value Source: NWS Daily Summary

Daily Weather History Graph

Daily Weather History Graph

Search for Another Location

Airport:

Trip Planner

Search our weather history database for the weather conditions in past years. The results will help you decide how hot, cold, wet, or windy it might be!

Date:

Astronomy

Sep. 19, 2013 Rise Set
Actual Time 6:45 AM PDT 7:01 PM PDT
Civil Twilight 6:18 AM PDT 7:27 PM PDT
Nautical Twilight 5:47 AM PDT 7:59 PM PDT
Astronomical Twilight 5:15 AM PDT 8:30 PM PDT
Moon 7:03 PM PDT (9/19) 6:59 AM PDT (9/19)
Length of Visible Light 13h 09m
Length of Day
12h 16m
Full, 100% of the Moon is Illuminated
Sep 19
Full
Sep 26
Last Quarter
Oct 4
New
Oct 11
First Quarter
Oct 18
Full

Hourly Weather History & Observations

Time (PDT) Temp. Windchill Dew Point Humidity Pressure Visibility Wind Dir Wind Speed Gust Speed Precip Events Conditions
12:53 AM 37.0 °F 33.3 °F 25.0 °F 62% 30.03 in 10.0 mi South 4.6 mph - N/A   Clear
1:53 AM 36.0 °F - 26.1 °F 67% 30.03 in 10.0 mi Calm Calm - N/A   Clear
2:53 AM 34.0 °F - 25.0 °F 70% 30.03 in 10.0 mi Calm Calm - N/A   Clear
3:53 AM 32.0 °F - 24.1 °F 73% 30.01 in 10.0 mi Calm Calm - N/A   Clear
4:53 AM 30.9 °F - 23.0 °F 72% 30.01 in 10.0 mi Calm Calm - N/A   Clear
5:53 AM 30.0 °F - 23.0 °F 75% 30.03 in 10.0 mi Calm Calm - N/A   Clear
6:53 AM 30.0 °F 25.2 °F 24.1 °F 79% 30.06 in 10.0 mi South 4.6 mph - N/A   Clear
7:53 AM 35.1 °F 31.0 °F 26.1 °F 70% 30.07 in 10.0 mi South 4.6 mph - N/A   Clear
8:53 AM 46.9 °F - 28.9 °F 50% 30.04 in 10.0 mi Calm Calm - N/A   Clear
9:53 AM 59.0 °F - 24.1 °F 26% 30.02 in 10.0 mi Calm Calm - N/A   Clear
10:53 AM 64.9 °F - 25.0 °F 22% 30.00 in 10.0 mi Calm Calm - N/A   Clear
11:53 AM 69.1 °F - 27.0 °F 21% 29.99 in 10.0 mi Variable 3.5 mph - N/A   Clear
12:53 PM 69.1 °F - 30.0 °F 23% 29.99 in 10.0 mi NE 9.2 mph - N/A   Clear
1:53 PM 72.0 °F - 28.0 °F 20% 29.96 in 10.0 mi NE 6.9 mph - N/A   Clear
2:53 PM 73.9 °F - 28.0 °F 18% 29.94 in 10.0 mi NNE 11.5 mph - N/A   Clear
3:53 PM 75.9 °F - 25.0 °F 15% 29.93 in 10.0 mi Variable 4.6 mph - N/A   Clear
4:53 PM 75.0 °F - 27.0 °F 17% 29.93 in 10.0 mi Calm Calm - N/A   Clear
5:53 PM 73.0 °F - 19.0 °F 13% 29.94 in 10.0 mi SSW 5.8 mph - N/A   Clear
6:53 PM 64.0 °F - 25.0 °F 23% 29.97 in 10.0 mi Calm Calm - N/A   Clear
7:53 PM 59.0 °F - 27.0 °F 29% 29.98 in 10.0 mi Calm Calm - N/A   Clear
8:53 PM 53.1 °F - 30.0 °F 41% 29.98 in 10.0 mi Calm Calm - N/A   Clear
9:53 PM 50.0 °F - 30.0 °F 46% 29.95 in 10.0 mi Calm Calm - N/A   Clear
10:53 PM 48.0 °F - 27.0 °F 44% 29.94 in 10.0 mi Calm Calm - N/A   Clear
11:53 PM 45.0 °F - 27.0 °F 49% 29.93 in 10.0 mi Calm Calm - N/A   Clear